Regional Weather Roundup
Issued by NWS

Home | Current Version | Previous Version | Graphics & Text | Print | Product List | Glossary On
Versions: 1 2 3 4 5 6 7 8 9 10 11 12 13 14 15 16 17 18 19 20 21 22 23 24 25 26 27 28 29 30 31 32 33 34 35 36 37 38 39 40 41 42 43 44 45 46 47 48 49 50
891
ASUS45 KPSR 202010
RWRAZ

ARIZONA HOURLY REGIONAL WEATHER ROUNDUP
NATIONAL WEATHER SERVICE PHOENIX AZ
100 PM MST THU JUL 20 2017

NOTE: FAIR INDICATES FEW OR NO CLOUDS BELOW 12,000 FEET WITH NO
SIGNIFICANT WEATHER AND/OR OBSTRUCTIONS TO VISIBILITY.

AZZ001>003-036-202100-
NORTHWEST ARIZONA

CITY           SKY/WX    TMP DP  RH WIND       PRES   REMARKS
BULLHEAD CITY  PTSUNNY  104  57  21 SW7G13    29.89F HX 103
KINGMAN        MOSUNNY   89  59  36 SE17      30.12S
$$

AZZ004>008-015-016-018-202100-
NORTH CENTRAL ARIZONA

CITY           SKY/WX    TMP DP  RH WIND       PRES   REMARKS
GRAND CANYON   SUNNY     79  52  38 W10       30.33F
WILLIAMS       MOSUNNY   75  52  43 CALM      30.35S
PRESCOTT       PTSUNNY   73  60  63 SW14      30.25S
FLAGSTAFF      MOSUNNY   60  56  86 VRB3      30.38F
PAYSON         MOSUNNY   81  59  47 CALM      30.25F
PAGE           SUNNY     91  54  28 CALM      30.11F
$$

AZZ009>014-017-202100-
NORTHEAST ARIZONA

CITY           SKY/WX    TMP DP  RH WIND       PRES   REMARKS
WINSLOW        SUNNY     91  49  23 SW10      30.17F
SAINT JOHNS    PTSUNNY   83  52  34 NW6       30.22F
WINDOW ROCK    PTSUNNY   86  52  30 S9G17     30.30F
SHOW LOW       LGT RAIN  64  57  77 SE9       30.34R
$$

AZZ540-542>544-546-548-202100-
GREATER PHOENIX AREA

CITY           SKY/WX    TMP DP  RH WIND       PRES   REMARKS
PHOENIX        MOSUNNY   97  61  30 N5        29.92F
BUCKEYE        SUNNY     99  59  26 S5        29.94F
GLENDALE       PTSUNNY   97  63  32 CALM      29.96F
LUKE AFB       MOSUNNY   98  62  30 W6        29.92F
DEER VALLEY    MOSUNNY   97  62  31 SW6       29.95F
SCOTTSDALE     SUNNY     97  60  29 W9        29.97F
MESA-FALCON    MOSUNNY   95  63  34 SW7       29.96F
MESA-GATEWAY   MOSUNNY   95  63  34 W6        29.96F
CHANDLER       SUNNY     99  61  28 N8        29.94F
$$

AZZ539-553-202100-
SOUTHWEST MARICOPA COUNTY AND PINAL COUNTY

CITY           SKY/WX    TMP DP  RH WIND       PRES   REMARKS
CASA GRANDE    MOSUNNY   97  68  38 SW9       29.96F HX 102
GILA BEND      MOSUNNY   99  59  25 NW5       29.92F
$$

AZZ503-504-507>509-202100-
SOUTHEAST ARIZONA

CITY           SKY/WX    TMP DP  RH WIND       PRES   REMARKS
TUCSON         PTSUNNY   90  64  42 NW5       30.06F
DAVIS-MONTHAN  MOSUNNY   94  63  35 NW7       30.05F
RYAN FIELD     SUNNY     91  64  40 CALM      30.05F
NOGALES        TSTM      75  70  84 S5        30.13F
SIERRA VISTA   PTSUNNY   83  58  42 CALM      30.20F
DOUGLAS        MOSUNNY   82  59  45 VRB5      30.15F
SAFFORD        MOSUNNY   87  62  43 SW7       30.07F
$$

AZZ532-202100-
SOUTHWEST ARIZONA

CITY           SKY/WX    TMP DP  RH WIND       PRES   REMARKS
YUMA           MOSUNNY  102  63  27 S12       29.88F HX 104
$$

CAZ041-043-047-048-061-525>527-560>570-202100-
SOUTHERN CALIFORNIA

CITY           SKY/WX    TMP DP  RH WIND       PRES   REMARKS
DOWNTOWN L.A.  SUNNY     87  63  44 W5        29.97F
L.A. AIRPORT   MOSUNNY   79  66  64 SW12      30.00F
SAN DIEGO      PTSUNNY   76  65  68 SW9       30.02S
BURBANK        SUNNY     87  60  40 S10       29.99F
ONTARIO        MOSUNNY   90  60  36 VRB3      30.00F
RIVERSIDE      SUNNY     92  62  36 SW7       29.99F
PALM SPRINGS   SUNNY    102  60  25 VRB5      29.91F HX 103
EL CENTRO NAS  MOSUNNY  103  54  19 SE6       29.87F HX 101
IMPERIAL       MOSUNNY  104  68  31 SE8       29.85F HX 110
BLYTHE         SUNNY    106  57  20 SE13G24   29.88F HX 105
NEEDLES        MOSUNNY  103  56  21 SW10      29.91F HX 102
$$

NVZ020-UTZ003-202100-
SOUTHERN NEVADA-UTAH

CITY           SKY/WX    TMP DP  RH WIND       PRES   REMARKS
LAS VEGAS      CLOUDY    95  58  28 S5        29.98F
SALT LAKE CITY PTSUNNY   91  55  29 S20G29    30.05F
$$

NMZ009-TXZ055-202100-
NEW MEXICO-WEST TEXAS

CITY           SKY/WX    TMP DP  RH WIND       PRES   REMARKS
ALBUQUERQUE    CLOUDY    84  52  33 CALM      30.24F
EL PASO        MOSUNNY   87  59  38 VRB7      30.15F
$$


........................KEY........................
SKY/WX - SKY CONDITION/WEATHER
TMP    - TEMPERATURE IN FAHRENHEIT
DP     - DEW POINT IN FAHRENHEIT
RH     - RELATIVE HUMIDITY IN PERCENT
WIND   - DIRECTION AND SPEED IN MILES PER HOUR (MPH)
VRB    - VARIABLE WIND DIRECTION
PRES   - MEAN SEA LEVEL PRESSURE IN INCHES OF MERCURY
         F - FALLING PRESSURE   R - RISING PRESSURE
         S - STEADY PRESSURE
VSB    - VISIBILITY IN MILES
HX     - HEAT INDEX IN FAHRENHEIT
WCI    - WIND CHILL INDEX IN FAHRENHEIT
TC     - TEMPERATURE IN CELSIUS WHICH IS ALSO KNOWN AS
         TEMPERATURE IN CENTIGRADE
AFB    - AIR FORCE BASE
         LUKE AFB IS LUKE AIR FORCE BASE
         DAVIS-MONTHAN IS DAVIS-MONTHAN AIR FORCE BASE
NAS    - NAVAL AIR STATION
         EL CENTRO NAS IS EL CENTRO NAVAL AIR STATION
N/A    - NOT AVAILABLE





USA.gov is the U.S. government's official web portal to all federal, state and local government web resources and services.